QPF
0.01 0.01 0.01 0.01 0.01 0.01 0.02 0.02 0.05 0.08 0.10 0.11 0.13 0.15 0.17 0.18 0.19 0.20 0.21 0.20 0.20 0.18 0.21 0.21 0.21 0.19 0.17 0.18 0.16 0.11 0.08 0.06 0.05 0.05 0.04 0.03 0.02 0.02 0.02 0.01 0.01 0.01 0.01
0.01 0.01 0.01 0.01 0.02 0.02 0.03 0.04 0.07 0.10 0.13 0.19 0.24 0.29 0.33 0.34 0.34 0.32 0.30 0.31 0.29 0.28 0.31 0.31 0.29 0.25 0.22 0.19 0.15 0.13 0.11 0.09 0.08 0.07 0.05 0.03 0.02 0.02 0.01 0.01 0.01 0.01 0.01
0.02 0.02 0.02 0.02 0.04 0.05 0.06 0.07 0.10 0.16 0.20 0.29 0.40 0.48 0.53 0.52 0.46 0.38 0.35 0.35 0.34 0.35 0.35 0.33 0.31 0.27 0.24 0.20 0.17 0.15 0.13 0.11 0.07 0.05 0.04 0.02 0.02 0.01 0.01 0.01 0.01 0.00 0.00
0.02 0.03 0.04 0.05 0.07 0.09 0.11 0.13 0.17 0.24 0.32 0.40 0.51 0.61 0.66 0.58 0.50 0.45 0.42 0.40 0.37 0.35 0.33 0.32 0.29 0.27 0.25 0.23 0.23 0.22 0.16 0.10 0.07 0.04 0.02 0.02 0.01 0.01 0.01 0.01 0.00 0.00 0.00
0.03 0.03 0.05 0.07 0.10 0.12 0.15 0.18 0.20 0.29 0.43 0.47 0.47 0.51 0.57 0.60 0.55 0.49 0.46 0.43 0.36 0.32 0.31 0.30 0.28 0.28 0.29 0.28 0.24 0.18 0.11 0.07 0.03 0.02 0.02 0.01 0.01 0.01 0.01 0.01 0.01 0.00 0.00
0.04 0.04 0.05 0.08 0.09 0.11 0.14 0.17 0.20 0.30 0.40 0.44 0.49 0.53 0.53 0.50 0.42 0.36 0.33 0.32 0.32 0.31 0.30 0.30 0.27 0.22 0.18 0.14 0.11 0.07 0.04 0.02 0.01 0.01 0.01 0.01 0.01 0.01 0.01 0.01 0.00 0.00 0.00
0.04 0.06 0.06 0.07 0.08 0.10 0.12 0.16 0.21 0.27 0.32 0.38 0.42 0.44 0.47 0.46 0.43 0.39 0.35 0.35 0.33 0.31 0.28 0.22 0.15 0.10 0.07 0.05 0.03 0.01 0.01 0.01 0.01 0.00 0.00 0.00 0.00 0.00 0.00 0.00 0.00 0.00 0.00
0.04 0.06 0.07 0.10 0.10 0.11 0.14 0.18 0.21 0.24 0.27 0.30 0.34 0.34 0.32 0.32 0.33 0.31 0.30 0.28 0.23 0.21 0.18 0.12 0.08 0.06 0.03 0.01 0.01 0.01 0.01 0.00 0.00 0.00 0.00 0.00 0.00 0.00 0.00 0.00 0.00 0.00 0.00
0.04 0.06 0.07 0.09 0.11 0.12 0.13 0.17 0.20 0.23 0.22 0.18 0.18 0.19 0.20 0.20 0.19 0.17 0.15 0.13 0.12 0.09 0.06 0.04 0.03 0.02 0.02 0.01 0.01 0.01 0.01 0.00 0.00 0.00 0.00 0.00 0.00 0.00 0.00 0.00 0.00 0.00 0.00
0.05 0.05 0.07 0.09 0.11 0.11 0.12 0.13 0.14 0.15 0.14 0.13 0.12 0.12 0.12 0.11 0.10 0.09 0.09 0.07 0.07 0.06 0.04 0.02 0.02 0.02 0.01 0.01 0.01 0.00 0.00 0.00 0.00 0.00 0.00 0.00 0.00 0.00 0.00 0.00 0.00 0.00 0.00
0.05 0.06 0.07 0.09 0.11 0.11 0.11 0.12 0.13 0.12 0.10 0.10 0.09 0.08 0.07 0.06 0.06 0.05 0.04 0.03 0.03 0.02 0.02 0.02 0.01 0.01 0.01 0.01 0.01 0.01 0.00 0.00 0.00 0.00 0.00 0.00 0.00 0.00 0.00 0.00 0.00 0.00 0.00
0.06 0.06 0.07 0.08 0.09 0.11 0.11 0.11 0.10 0.09 0.09 0.08 0.08 0.07 0.06 0.05 0.04 0.04 0.04 0.03 0.03 0.02 0.02 0.02 0.02 0.02 0.01 0.01 0.01 0.01 0.00 0.00 0.00 0.00 0.00 0.00 0.00 0.00 0.00 0.00 0.00 0.00 0.00
0.08 0.09 0.09 0.09 0.10 0.09 0.08 0.07 0.06 0.06 0.05 0.05 0.04 0.05 0.05 0.04 0.05 0.04 0.03 0.02 0.02 0.02 0.02 0.02 0.01 0.01 0.01 0.01 0.00 0.00 0.00 0.00 0.00 0.00 0.00 0.00 0.00 0.00 0.00 0.00 0.00 0.00 0.00
0.10 0.11 0.11 0.09 0.08 0.08 0.07 0.06 0.05 0.05 0.04 0.04 0.03 0.03 0.03 0.03 0.02 0.02 0.02 0.02 0.01 0.01 0.01 0.00 0.00 0.00 0.00 0.00 0.00 0.00 0.00 0.00 0.00 0.00 0.00 0.00 0.00 0.00 0.00 0.00 0.00 0.00 0.00
0.11 0.12 0.10 0.10 0.09 0.07 0.05 0.04 0.03 0.03 0.02 0.02 0.02 0.02 0.02 0.02 0.01 0.01 0.01 0.00 0.00 0.00 0.00 0.00 0.00 0.00 0.00 0.00 0.00 0.00 0.00 0.00 0.00 0.00 0.00 0.00 0.00 0.00 0.00 0.00 0.00 0.00 0.00
0.13 0.12 0.12 0.11 0.09 0.07 0.07 0.06 0.05 0.04 0.04 0.03 0.03 0.02 0.02 0.01 0.01 0.01 0.00 0.00 0.00 0.00 0.00 0.00 0.00 0.00 0.00 0.00 0.00 0.00 0.00 0.00 0.00 0.00 0.00 0.00 0.00 0.00 0.00 0.00 0.00 0.00 0.00
0.15 0.15 0.14 0.11 0.09 0.08 0.06 0.05 0.04 0.03 0.02 0.01 0.01 0.01 0.01 0.01 0.00 0.00 0.00 0.00 0.00 0.00 0.00 0.00 0.00 0.00 0.00 0.00 0.00 0.00 0.00 0.00 0.00 0.00 0.00 0.00 0.00 0.00 0.00 0.00 0.00 0.00 0.00
0.13 0.12 0.11 0.10 0.07 0.06 0.05 0.04 0.02 0.01 0.01 0.01 0.01 0.00 0.00 0.00 0.00 0.00 0.00 0.00 0.00 0.00 0.00 0.00 0.00 0.00 0.00 0.00 0.00 0.00 0.00 0.00 0.00 0.00 0.00 0.00 0.00 0.00 0.00 0.00 0.00 0.00 0.00
0.14 0.12 0.09 0.06 0.05 0.04 0.03 0.02 0.01 0.01 0.01 0.01 0.01 0.01 0.01 0.01 0.00 0.00 0.00 0.00 0.00 0.00 0.00 0.00 0.00 0.00 0.00 0.00 0.00 0.00 0.00 0.00 0.00 0.00 0.00 0.00 0.00 0.00 0.00 0.00 0.00 0.00 0.00
0.12 0.11 0.08 0.06 0.04 0.02 0.01 0.01 0.01 0.01 0.01 0.01 0.01 0.01 0.01 0.01 0.01 0.00 0.00 0.00 0.00 0.00 0.00 0.00 0.00 0.00 0.00 0.00 0.00 0.00 0.00 0.00 0.00 0.00 0.00 0.00 0.00 0.00 0.01 0.01 0.00 0.01 0.00
0.09 0.07 0.06 0.05 0.02 0.01 0.00 0.01 0.01 0.00 0.00 0.00 0.00 0.00 0.00 0.00 0.00 0.00 0.00 0.00 0.00 0.00 0.00 0.00 0.00 0.00 0.00 0.00 0.00 0.00 0.00 0.00 0.00 0.00 0.00 0.01 0.01 0.01 0.01 0.01 0.01 0.01 0.01
0.05 0.04 0.03 0.02 0.01 0.00 0.00 0.00 0.00 0.00 0.00 0.00 0.00 0.00 0.00 0.00 0.00 0.00 0.00 0.00 0.00 0.00 0.00 0.00 0.00 0.00 0.00 0.00 0.00 0.00 0.00 0.00 0.00 0.01 0.01 0.01 0.01 0.01 0.01 0.01 0.01 0.01 0.01
0.02 0.01 0.01 0.00 0.00 0.00 0.00 0.00 0.00 0.00 0.00 0.00 0.00 0.00 0.00 0.00 0.00 0.00 0.00 0.00 0.00 0.00 0.00 0.00 0.00 0.00 0.00 0.00 0.00 0.00 0.00 0.01 0.01 0.01 0.01 0.01 0.01 0.01 0.01 0.01 0.01 0.01 0.01
0.01 0.00 0.00 0.00 0.00 0.00 0.00 0.00 0.00 0.00 0.00 0.00 0.00 0.00 0.00 0.00 0.00 0.00 0.00 0.00 0.00 0.00 0.00 0.00 0.00 0.00 0.00 0.00 0.00 0.00 0.00 0.01 0.01 0.01 0.01 0.01 0.01 0.01 0.01 0.01 0.01 0.01 0.01
0.00 0.00 0.00 0.00 0.00 0.00 0.00 0.00 0.00 0.00 0.00 0.00 0.00 0.00 0.00 0.00 0.00 0.00 0.00 0.00 0.00 0.00 0.00 0.00 0.00 0.00 0.00 0.00 0.00 0.00 0.01 0.01 0.01 0.01 0.01 0.01 0.01 0.01 0.01 0.01 0.00 0.00 0.00
0.00 0.00 0.00 0.00 0.00 0.00 0.00 0.00 0.00 0.00 0.00 0.00 0.00 0.00 0.00 0.00 0.00 0.00 0.00 0.00 0.00 0.00 0.00 0.00 0.00 0.00 0.00 0.00 0.00 0.01 0.01 0.01 0.02 0.02 0.02 0.02 0.01 0.01 0.01 0.00 0.00 0.00 0.00
MSLP
1009.05 1008.97 1009.00 1009.16 1009.41 1009.76 1010.17 1010.64 1011.15 1011.68 1012.20 1012.72 1013.20 1013.65 1014.05 1014.41 1014.72 1015.00 1015.27 1015.53 1015.80 1016.09 1016.41 1016.75 1017.12 1017.52 1017.94 1018.38 1018.83 1019.27 1019.71 1020.11 1020.48 1020.79 1021.05 1021.23 1021.36 1021.42 1021.44 1021.43 1021.41 1021.38 1021.36
1009.71 1009.56 1009.50 1009.54 1009.66 1009.86 1010.14 1010.49 1010.90 1011.36 1011.86 1012.37 1012.88 1013.36 1013.81 1014.21 1014.57 1014.89 1015.19 1015.48 1015.77 1016.08 1016.41 1016.77 1017.15 1017.56 1017.99 1018.42 1018.87 1019.32 1019.76 1020.18 1020.57 1020.91 1021.20 1021.43 1021.59 1021.69 1021.73 1021.74 1021.73 1021.70 1021.67
1010.49 1010.29 1010.14 1010.06 1010.04 1010.09 1010.22 1010.43 1010.73 1011.11 1011.57 1012.08 1012.62 1013.16 1013.67 1014.14 1014.57 1014.95 1015.30 1015.63 1015.95 1016.28 1016.62 1016.98 1017.35 1017.74 1018.14 1018.56 1018.98 1019.41 1019.83 1020.25 1020.64 1021.01 1021.33 1021.59 1021.79 1021.93 1022.02 1022.06 1022.06 1022.05 1022.03
1011.35 1011.10 1010.89 1010.70 1010.55 1010.46 1010.44 1010.52 1010.72 1011.03 1011.45 1011.95 1012.52 1013.11 1013.69 1014.25 1014.76 1015.21 1015.62 1016.00 1016.35 1016.70 1017.04 1017.38 1017.73 1018.09 1018.45 1018.82 1019.20 1019.60 1019.99 1020.40 1020.79 1021.17 1021.51 1021.81 1022.04 1022.22 1022.34 1022.41 1022.44 1022.45 1022.44
1012.25 1011.99 1011.73 1011.46 1011.22 1011.01 1010.87 1010.83 1010.93 1011.17 1011.55 1012.05 1012.64 1013.28 1013.92 1014.55 1015.13 1015.66 1016.13 1016.56 1016.94 1017.30 1017.64 1017.97 1018.29 1018.61 1018.93 1019.26 1019.60 1019.95 1020.31 1020.69 1021.08 1021.45 1021.81 1022.12 1022.38 1022.59 1022.73 1022.82 1022.87 1022.89 1022.88
1013.17 1012.92 1012.65 1012.35 1012.04 1011.76 1011.53 1011.41 1011.43 1011.61 1011.95 1012.43 1013.03 1013.69 1014.38 1015.06 1015.70 1016.28 1016.80 1017.26 1017.67 1018.04 1018.38 1018.70 1019.00 1019.29 1019.57 1019.86 1020.16 1020.48 1020.81 1021.17 1021.53 1021.89 1022.23 1022.54 1022.80 1023.01 1023.17 1023.26 1023.32 1023.33 1023.32
1014.07 1013.88 1013.63 1013.34 1013.02 1012.70 1012.44 1012.27 1012.24 1012.37 1012.67 1013.13 1013.71 1014.37 1015.07 1015.77 1016.43 1017.04 1017.58 1018.06 1018.49 1018.87 1019.21 1019.52 1019.81 1020.08 1020.35 1020.61 1020.88 1021.16 1021.47 1021.79 1022.11 1022.44 1022.75 1023.04 1023.28 1023.47 1023.60 1023.69 1023.72 1023.72 1023.69
1014.95 1014.83 1014.66 1014.41 1014.13 1013.83 1013.56 1013.38 1013.33 1013.43 1013.70 1014.12 1014.67 1015.30 1015.98 1016.66 1017.31 1017.91 1018.45 1018.93 1019.36 1019.74 1020.08 1020.39 1020.68 1020.94 1021.20 1021.45 1021.70 1021.96 1022.23 1022.50 1022.78 1023.06 1023.31 1023.54 1023.73 1023.88 1023.98 1024.03 1024.03 1024.01 1023.94
1015.78 1015.76 1015.68 1015.53 1015.31 1015.07 1014.85 1014.70 1014.65 1014.75 1014.99 1015.38 1015.88 1016.46 1017.08 1017.70 1018.31 1018.87 1019.37 1019.83 1020.24 1020.61 1020.95 1021.27 1021.56 1021.83 1022.09 1022.33 1022.56 1022.79 1023.02 1023.24 1023.45 1023.66 1023.84 1023.99 1024.11 1024.20 1024.24 1024.24 1024.21 1024.15 1024.05
1016.53 1016.64 1016.67 1016.63 1016.52 1016.37 1016.23 1016.13 1016.13 1016.24 1016.47 1016.82 1017.26 1017.78 1018.32 1018.87 1019.40 1019.89 1020.34 1020.75 1021.13 1021.48 1021.81 1022.12 1022.42 1022.69 1022.95 1023.18 1023.40 1023.59 1023.77 1023.92 1024.06 1024.18 1024.27 1024.33 1024.37 1024.38 1024.36 1024.31 1024.24 1024.14 1024.01
1017.20 1017.43 1017.59 1017.67 1017.69 1017.65 1017.61 1017.60 1017.65 1017.80 1018.03 1018.36 1018.76 1019.20 1019.66 1020.12 1020.55 1020.96 1021.33 1021.68 1022.01 1022.33 1022.64 1022.94 1023.23 1023.50 1023.75 1023.96 1024.15 1024.30 1024.42 1024.50 1024.55 1024.57 1024.57 1024.54 1024.49 1024.42 1024.34 1024.24 1024.13 1024.00 1023.85
1017.81 1018.15 1018.43 1018.64 1018.77 1018.86 1018.93 1019.01 1019.14 1019.33 1019.59 1019.90 1020.26 1020.64 1021.02 1021.39 1021.73 1022.04 1022.34 1022.61 1022.88 1023.16 1023.43 1023.71 1023.97 1024.23 1024.45 1024.64 1024.79 1024.89 1024.94 1024.94 1024.91 1024.84 1024.74 1024.63 1024.50 1024.36 1024.22 1024.08 1023.94 1023.78 1023.61
1018.38 1018.82 1019.20 1019.51 1019.75 1019.95 1020.13 1020.32 1020.53 1020.78 1021.06 1021.37 1021.70 1022.03 1022.34 1022.62 1022.87 1023.10 1023.31 1023.52 1023.72 1023.94 1024.17 1024.41 1024.64 1024.86 1025.05 1025.20 1025.29 1025.34 1025.33 1025.26 1025.15 1025.00 1024.82 1024.63 1024.43 1024.24 1024.05 1023.87 1023.70 1023.52 1023.33
1018.96 1019.47 1019.93 1020.32 1020.65 1020.94 1021.21 1021.48 1021.77 1022.07 1022.38 1022.70 1023.01 1023.29 1023.54 1023.76 1023.94 1024.09 1024.23 1024.36 1024.51 1024.67 1024.84 1025.03 1025.21 1025.38 1025.53 1025.63 1025.67 1025.66 1025.59 1025.46 1025.29 1025.07 1024.83 1024.58 1024.33 1024.09 1023.86 1023.65 1023.45 1023.25 1023.04
1019.59 1020.14 1020.64 1021.08 1021.47 1021.83 1022.17 1022.50 1022.84 1023.18 1023.52 1023.84 1024.13 1024.38 1024.59 1024.75 1024.86 1024.96 1025.03 1025.11 1025.20 1025.30 1025.42 1025.55 1025.68 1025.80 1025.89 1025.93 1025.93 1025.87 1025.75 1025.57 1025.35 1025.09 1024.81 1024.51 1024.22 1023.94 1023.67 1023.43 1023.19 1022.96 1022.73
1020.28 1020.85 1021.36 1021.82 1022.24 1022.64 1023.01 1023.39 1023.76 1024.12 1024.46 1024.77 1025.04 1025.27 1025.43 1025.55 1025.62 1025.67 1025.70 1025.73 1025.77 1025.82 1025.89 1025.97 1026.05 1026.11 1026.14 1026.14 1026.08 1025.98 1025.82 1025.60 1025.35 1025.06 1024.75 1024.43 1024.10 1023.79 1023.49 1023.20 1022.93 1022.66 1022.39
1021.06 1021.62 1022.12 1022.57 1022.99 1023.39 1023.78 1024.16 1024.53 1024.88 1025.21 1025.50 1025.74 1025.93 1026.06 1026.14 1026.18 1026.20 1026.20 1026.20 1026.21 1026.23 1026.26 1026.29 1026.32 1026.33 1026.31 1026.25 1026.16 1026.01 1025.82 1025.58 1025.30 1024.99 1024.66 1024.32 1023.97 1023.62 1023.28 1022.95 1022.64 1022.33 1022.02
1021.90 1022.42 1022.89 1023.32 1023.72 1024.10 1024.47 1024.83 1025.17 1025.50 1025.79 1026.04 1026.24 1026.39 1026.48 1026.53 1026.55 1026.55 1026.54 1026.53 1026.52 1026.52 1026.53 1026.52 1026.51 1026.47 1026.41 1026.31 1026.17 1025.99 1025.77 1025.51 1025.22 1024.89 1024.54 1024.18 1023.80 1023.42 1023.04 1022.67 1022.30 1021.95 1021.61
1022.76 1023.24 1023.67 1024.06 1024.42 1024.76 1025.09 1025.41 1025.71 1025.98 1026.22 1026.42 1026.57 1026.67 1026.73 1026.76 1026.77 1026.76 1026.75 1026.74 1026.74 1026.73 1026.72 1026.70 1026.65 1026.58 1026.48 1026.34 1026.16 1025.95 1025.70 1025.41 1025.10 1024.76 1024.39 1024.00 1023.59 1023.17 1022.76 1022.34 1021.94 1021.54 1021.17
1023.59 1024.02 1024.40 1024.74 1025.06 1025.36 1025.64 1025.91 1026.15 1026.36 1026.53 1026.67 1026.76 1026.82 1026.85 1026.87 1026.87 1026.87 1026.87 1026.88 1026.89 1026.89 1026.88 1026.85 1026.78 1026.68 1026.54 1026.36 1026.15 1025.90 1025.61 1025.30 1024.96 1024.59 1024.20 1023.78 1023.35 1022.90 1022.44 1021.99 1021.55 1021.13 1020.73
1024.34 1024.71 1025.04 1025.34 1025.61 1025.87 1026.10 1026.31 1026.49 1026.64 1026.75 1026.83 1026.87 1026.89 1026.90 1026.90 1026.91 1026.92 1026.95 1026.98 1027.01 1027.03 1027.03 1026.99 1026.91 1026.79 1026.61 1026.40 1026.15 1025.86 1025.54 1025.19 1024.82 1024.42 1023.99 1023.55 1023.08 1022.61 1022.12 1021.65 1021.18 1020.75 1020.34
1024.97 1025.29 1025.57 1025.82 1026.06 1026.27 1026.45 1026.62 1026.75 1026.84 1026.90 1026.92 1026.93 1026.92 1026.90 1026.90 1026.92 1026.95 1027.01 1027.07 1027.13 1027.17 1027.18 1027.14 1027.05 1026.91 1026.71 1026.46 1026.16 1025.83 1025.47 1025.09 1024.68 1024.25 1023.80 1023.33 1022.84 1022.34 1021.84 1021.35 1020.88 1020.44 1020.03
1025.46 1025.73 1025.96 1026.18 1026.37 1026.54 1026.69 1026.82 1026.90 1026.96 1026.98 1026.97 1026.95 1026.92 1026.90 1026.91 1026.94 1026.99 1027.07 1027.16 1027.24 1027.30 1027.32 1027.29 1027.19 1027.03 1026.80 1026.52 1026.19 1025.82 1025.43 1025.01 1024.57 1024.11 1023.63 1023.14 1022.64 1022.13 1021.63 1021.13 1020.66 1020.23 1019.83
1025.81 1026.03 1026.22 1026.40 1026.56 1026.70 1026.82 1026.92 1026.98 1027.01 1027.00 1026.98 1026.95 1026.92 1026.91 1026.92 1026.97 1027.04 1027.14 1027.25 1027.35 1027.42 1027.44 1027.41 1027.30 1027.12 1026.88 1026.57 1026.21 1025.82 1025.40 1024.95 1024.49 1024.01 1023.52 1023.02 1022.52 1022.01 1021.51 1021.03 1020.57 1020.14 1019.76
1026.04 1026.21 1026.36 1026.50 1026.64 1026.75 1026.85 1026.93 1026.97 1026.99 1026.99 1026.96 1026.93 1026.91 1026.91 1026.94 1027.01 1027.10 1027.21 1027.33 1027.43 1027.51 1027.53 1027.48 1027.37 1027.18 1026.92 1026.59 1026.22 1025.81 1025.38 1024.92 1024.45 1023.97 1023.48 1022.99 1022.50 1022.01 1021.52 1021.05 1020.60 1020.18 1019.80
1026.18 1026.30 1026.42 1026.53 1026.63 1026.72 1026.81 1026.87 1026.91 1026.93 1026.93 1026.92 1026.91 1026.90 1026.92 1026.97 1027.04 1027.14 1027.26 1027.38 1027.48 1027.54 1027.56 1027.50 1027.38 1027.18 1026.91 1026.59 1026.21 1025.81 1025.37 1024.92 1024.47 1024.00 1023.54 1023.06 1022.59 1022.12 1021.65 1021.20 1020.76 1020.33 1019.94
Thickness
5764 5768 5772 5774 5773 5771 5768 5765 5762 5758 5753 5747 5743 5737 5732 5730 5726 5723 5719 5716 5712 5710 5708 5705 5703 5700 5697 5694 5691 5685 5681 5676 5674 5671 5668 5666 5664 5662 5661 5659 5658 5655 5653
5751 5757 5762 5765 5766 5765 5763 5760 5757 5754 5752 5747 5742 5736 5728 5722 5720 5716 5711 5707 5705 5703 5701 5698 5696 5693 5689 5685 5682 5678 5672 5667 5664 5663 5660 5656 5654 5652 5650 5649 5647 5644 5642
5740 5746 5751 5754 5756 5756 5756 5754 5751 5749 5745 5741 5735 5727 5721 5715 5710 5706 5702 5697 5695 5694 5692 5690 5687 5684 5681 5677 5674 5671 5666 5661 5656 5654 5653 5649 5647 5642 5639 5636 5634 5632 5630
5730 5735 5740 5743 5746 5747 5748 5747 5744 5741 5737 5733 5728 5722 5716 5707 5702 5698 5693 5687 5684 5683 5680 5678 5675 5672 5670 5667 5664 5661 5657 5653 5648 5644 5641 5639 5637 5634 5629 5624 5621 5619 5616
5718 5723 5728 5732 5735 5737 5737 5736 5735 5731 5727 5724 5719 5715 5708 5700 5693 5688 5682 5677 5673 5670 5668 5664 5662 5659 5656 5654 5652 5649 5645 5642 5638 5634 5630 5627 5622 5619 5618 5613 5608 5605 5602
5707 5711 5715 5720 5722 5724 5724 5724 5723 5718 5715 5713 5709 5704 5697 5689 5682 5675 5670 5665 5660 5657 5655 5652 5648 5645 5643 5640 5637 5634 5632 5628 5624 5620 5617 5613 5610 5605 5602 5598 5593 5589 5587
5694 5698 5701 5704 5706 5707 5709 5710 5708 5703 5700 5699 5694 5690 5685 5677 5670 5664 5658 5653 5647 5643 5640 5637 5633 5630 5628 5624 5621 5619 5615 5612 5609 5604 5600 5597 5593 5590 5586 5582 5577 5573 5570
5680 5683 5686 5688 5689 5690 5691 5691 5690 5687 5684 5682 5677 5673 5668 5663 5655 5650 5645 5638 5633 5628 5625 5622 5618 5614 5612 5609 5605 5602 5598 5595 5592 5588 5584 5580 5576 5573 5570 5566 5561 5558 5554
5666 5667 5669 5671 5671 5672 5672 5672 5672 5669 5667 5663 5659 5655 5650 5646 5639 5634 5630 5624 5619 5615 5611 5608 5604 5600 5597 5593 5589 5585 5581 5578 5575 5571 5567 5563 5559 5555 5551 5548 5544 5541 5539
5652 5653 5654 5654 5654 5654 5654 5654 5653 5651 5647 5645 5642 5638 5632 5628 5623 5619 5614 5608 5604 5600 5597 5593 5589 5585 5581 5577 5573 5568 5564 5561 5557 5554 5550 5546 5541 5537 5533 5529 5525 5521 5519
5639 5638 5638 5638 5638 5638 5637 5636 5634 5631 5629 5626 5622 5619 5615 5611 5607 5603 5597 5592 5588 5585 5581 5577 5573 5568 5564 5560 5556 5551 5547 5543 5539 5536 5532 5528 5524 5519 5516 5512 5507 5503 5499
5625 5624 5624 5623 5622 5621 5619 5617 5616 5614 5610 5607 5605 5601 5596 5593 5590 5586 5580 5576 5572 5568 5564 5560 5556 5551 5546 5542 5538 5533 5529 5525 5521 5517 5514 5509 5506 5502 5498 5495 5491 5487 5483
5612 5610 5609 5607 5605 5603 5602 5601 5598 5596 5593 5590 5587 5583 5579 5576 5572 5567 5563 5559 5555 5551 5547 5543 5538 5533 5529 5524 5520 5515 5511 5507 5502 5499 5495 5491 5488 5485 5482 5479 5476 5472 5469
5600 5598 5595 5592 5590 5588 5586 5584 5582 5579 5576 5574 5570 5566 5563 5559 5555 5551 5547 5543 5539 5535 5531 5526 5521 5516 5512 5507 5503 5498 5494 5489 5485 5481 5478 5475 5472 5469 5466 5464 5461 5458 5455
5589 5586 5582 5579 5577 5574 5571 5569 5566 5564 5561 5558 5554 5550 5546 5543 5540 5536 5531 5527 5523 5519 5515 5510 5505 5500 5495 5491 5486 5482 5477 5472 5468 5464 5461 5458 5458 5455 5452 5450 5448 5446 5443
5578 5574 5570 5567 5563 5559 5556 5554 5552 5548 5546 5543 5539 5535 5532 5528 5525 5521 5517 5513 5508 5504 5500 5495 5490 5485 5481 5475 5471 5466 5460 5455 5451 5448 5445 5443 5441 5440 5438 5437 5436 5435 5434
5568 5564 5558 5554 5550 5546 5544 5540 5537 5534 5531 5528 5524 5521 5518 5515 5511 5508 5503 5498 5494 5490 5485 5481 5476 5470 5466 5461 5456 5450 5445 5440 5436 5433 5430 5429 5428 5427 5426 5426 5427 5427 5426
5556 5551 5547 5541 5537 5534 5530 5528 5525 5522 5519 5515 5512 5508 5505 5502 5498 5494 5490 5486 5481 5477 5473 5468 5462 5457 5452 5447 5442 5437 5432 5428 5425 5422 5419 5418 5418 5418 5417 5418 5420 5421 5423
5543 5539 5534 5530 5526 5523 5520 5517 5513 5510 5507 5504 5501 5498 5495 5491 5487 5483 5479 5474 5470 5466 5461 5456 5450 5444 5439 5435 5430 5425 5421 5418 5416 5414 5412 5411 5411 5412 5412 5413 5415 5418 5421
5531 5527 5522 5518 5515 5511 5509 5506 5501 5499 5496 5494 5491 5488 5485 5481 5477 5473 5468 5464 5459 5454 5450 5444 5438 5433 5428 5423 5418 5414 5411 5409 5408 5408 5408 5408 5408 5409 5410 5411 5413 5416 5419
5520 5516 5512 5508 5504 5501 5499 5495 5492 5489 5487 5484 5482 5479 5475 5472 5468 5463 5459 5454 5450 5445 5439 5434 5429 5424 5419 5414 5410 5407 5404 5402 5402 5403 5405 5406 5407 5408 5411 5412 5414 5415 5417
5510 5506 5502 5498 5495 5492 5490 5486 5483 5480 5478 5476 5473 5470 5467 5464 5461 5456 5451 5446 5441 5436 5430 5425 5421 5416 5412 5408 5406 5403 5401 5399 5400 5401 5403 5405 5408 5410 5412 5414 5416 5417 5418
5501 5497 5493 5489 5486 5483 5482 5478 5475 5473 5471 5468 5465 5462 5460 5456 5453 5448 5443 5438 5433 5428 5423 5418 5414 5411 5408 5406 5403 5402 5401 5401 5401 5402 5404 5407 5409 5412 5414 5415 5416 5417 5418
5492 5488 5485 5481 5478 5476 5474 5472 5469 5467 5465 5462 5458 5455 5452 5449 5445 5441 5437 5432 5428 5423 5418 5414 5410 5407 5405 5404 5402 5401 5401 5403 5404 5405 5407 5409 5411 5413 5414 5416 5418 5418 5418
5484 5481 5478 5475 5472 5470 5468 5466 5464 5461 5458 5455 5452 5449 5446 5443 5439 5435 5431 5428 5424 5419 5415 5411 5407 5404 5403 5402 5400 5399 5401 5402 5403 5405 5408 5410 5412 5414 5415 5417 5418 5419 5419
5479 5475 5472 5470 5467 5465 5463 5461 5459 5456 5452 5449 5447 5444 5441 5438 5434 5431 5427 5424 5421 5418 5414 5410 5406 5404 5402 5401 5402 5403 5404 5405 5407 5408 5408 5410 5411 5412 5413 5415 5417 5419 5419